GPM-CORE

Last updated on Sat Mar 14 2026 00:02:36 GMT+0000 (Coordinated Universal Time)

1 39574U 14009C 26072.59462262 .00009264 00000+0 20149-3 0 9994 2 39574 64.9723 268.4062 0012391 267.0418 92.9305 15.44786742683040
UTC large
Height (km)
Speed (km/s)
/
Latitude / Longitude
Inclination (degrees)
Orbital Period (minutes)
Azimuth
Elevation
Range (km)
Doppler Factor

Next 0 passes for location: London (51.5072 / 0.1276)

Sorry there are no passes over London.